{"data":{"norad_id":65579,"epoch":"2026-05-25T03:02:03.822432Z","epoch_age_seconds":74374,"freshness":"FRESH","line1":"1 65579U 25203Q   26145.12643313  .00000214  00000+0  18466-3 0  9999","line2":"2 65579  81.3081  32.3915 0004603 266.4971  93.5658 13.83264357 35495","mean_motion":13.83264357,"eccentricity":0.0004603,"inclination_deg":81.3081,"raan_deg":32.3915,"arg_perigee_deg":266.4971,"mean_anomaly_deg":93.5658,"bstar":0.00018466,"rev_number":3549,"period_min":104.10157629761,"perigee_km":948.95703454498,"apogee_km":955.70546361508,"semimajor_km":7330.46824908,"source":"CELESTRAK","updated_at":"2026-05-25T13:38:25.171361Z"}}